Вернуться в каталог

VELA 11/12 INTERSTAGE

LostВоенныеHEO
NORAD 60002·PAYLOAD·🇺🇸 United States

Запущен Apr 8, 1970 с Cape Canaveral Space Force Station

Loading…

Ближайшие Пролёты (ближайшие 24 часа)

TLE

УстаревшееSource: Space-Track

Эпоха: Jun 8, 2026, 20:48 UTC

1 60002U 70027D   26159.86688047 -.00000298  00000-0  00000+0 0  9993
2 60002  18.7333  33.0398 7962767 288.7071 359.0840  0.45904703 20944

Отслеживайте VELA 11/12 INTERSTAGE в реальном времени с AllMySat

Download on the App Store